Location: Dehesa de la Cepeda
(40.6574°N, 4.3013°W)
Time: 00:44:12
(UTC+00:00)

Courier 1B - Pass Details

Date: 03 August 2021
Orbit: 963 x 1209 km, 28.3° (Epoch: 17 September)

Event Time Altitude Azimuth Distance (km) Brightness Sun altitude
Rises 22:30:12 0° 260° (W) 4,090 11.0 -26.4°
Reaches altitude 10° 22:33:48 10° 246° (WSW) 3,101 10.2 -26.7°
Enters shadow 22:37:22 20° 220° (SW) 2,418 9.3 -27.1°
Maximum altitude 22:39:22 22° 199° (SSW) 2,284 - -27.3°
Drops below altitude 10° 22:44:45 10° 152° (SSE) 2,985 - -27.7°
Sets 22:48:08 0° 138° (SE) 3,897 - -28.0°
